Location: Burleson Alternative School
(32.5290°N, 97.3406°W)
Time: 14:45:43
(UTC+00:00)

Explorer 7 - All Passes

Search period start: 02 November 2024 00:00
Search period end: 12 November 2024 00:00
Orbit: 458 x 603 km, 50.3° (Epoch: 01 November)

Date Brightness Start Highest point End Pass type
(mag) Time Alt. Az. Time Alt. Az. Time Alt. Az.
02 Nov - 11:39:58 10° SSE 11:42:06 14° SE 11:44:17 10° E visible
02 Nov - 13:16:56 10° WSW 13:21:02 64° NW 13:25:21 10° NE daylight
02 Nov - 14:58:50 10° NW 15:01:12 14° NNW 15:03:37 10° N daylight
02 Nov - 18:21:53 10° N 18:23:35 12° NNE 18:25:16 10° NE daylight
02 Nov - 19:59:42 10° NW 20:03:59 43° NE 20:08:10 10° ESE daylight
02 Nov - 21:39:37 10° WNW 21:43:14 25° SW 21:46:46 10° S daylight
03 Nov - 11:27:25 10° S 11:30:09 18° SE 11:32:59 10° E visible
03 Nov - 13:05:12 10° WSW 13:09:12 51° NW 13:13:26 10° NE daylight
03 Nov - 14:47:34 10° NW 14:49:29 13° NNW 14:51:26 10° N daylight
03 Nov - 18:09:43 10° N 18:11:52 13° NNE 18:14:02 10° NE daylight
03 Nov - 19:47:46 10° NW 19:52:09 52° NE 19:56:27 10° ESE daylight
03 Nov - 21:28:05 10° W 21:31:17 20° SW 21:34:25 10° S daylight
04 Nov - 11:15:01 10° S 11:18:10 22° SE 11:21:27 10° ENE visible
04 Nov - 12:53:27 10° WSW 12:57:21 41° NW 13:01:26 10° NE daylight
04 Nov - 14:36:23 10° NW 14:37:45 11° NNW 14:39:07 10° N daylight
04 Nov - 17:57:33 10° NNW 18:00:06 15° NNE 18:02:40 10° ENE daylight
04 Nov - 19:35:47 10° NW 19:40:15 65° NE 19:44:37 10° ESE daylight
04 Nov - 21:16:38 10° W 21:19:16 16° SW 21:21:51 10° SSW daylight
05 Nov - 11:02:43 10° S 11:06:09 28° SE 11:09:44 10° ENE visible
05 Nov - 12:41:43 10° W 12:45:27 34° NW 12:49:23 10° NNE daylight
05 Nov - 14:25:44 10° NNW 14:25:58 10° NNW 14:26:13 10° NNW daylight
05 Nov - 17:45:22 10° NNW 17:48:16 17° NNE 17:51:10 10° ENE daylight
05 Nov - 19:23:48 10° NW 19:28:17 80° NE 19:32:42 10° SE daylight
05 Nov - 21:05:27 10° WSW 21:07:11 12° SW 21:08:56 10° SSW daylight
06 Nov - 10:50:28 10° SSW 10:54:06 36° SE 10:57:55 10° ENE visible
06 Nov - 12:29:58 10° W 12:33:32 28° NNW 12:37:15 10° NNE daylight
06 Nov - 17:33:11 10° NNW 17:36:22 19° NNE 17:39:35 10° ENE daylight
06 Nov - 19:11:47 10° NW 19:16:16 82° SW 19:20:40 10° SE daylight
07 Nov - 10:38:14 10° SSW 10:42:00 46° SE 10:45:59 10° ENE visible
07 Nov - 12:18:14 10° W 12:21:34 24° NNW 12:25:03 10° NNE visible
07 Nov - 17:20:58 10° NNW 17:24:26 22° NNE 17:27:54 10° E daylight
07 Nov - 18:59:45 10° NW 19:04:11 66° SW 19:08:33 10° SE daylight
08 Nov - 10:26:02 10° SW 10:29:53 60° SE 10:33:58 10° NE visible
08 Nov - 12:06:30 10° WNW 12:09:35 20° NNW 12:12:47 10° NNE visible
08 Nov - 17:08:44 10° NNW 17:12:25 25° NNE 17:16:07 10° E daylight
08 Nov - 18:47:42 10° WNW 18:52:02 52° SW 18:56:20 10° SSE daylight
09 Nov - 10:13:51 10° SW 10:17:44 77° SE 10:21:51 10° NE visible
09 Nov - 11:54:46 10° WNW 11:57:33 18° NNW 12:00:27 10° NNE visible
09 Nov - 16:56:27 10° NNW 17:00:20 29° NNE 17:04:15 10° E daylight
09 Nov - 18:35:39 10° WNW 18:39:50 41° SW 18:44:00 10° SSE daylight
10 Nov - 10:01:41 10° SW 10:05:33 83° NW 10:09:40 10° NE visible
10 Nov - 11:43:03 10° WNW 11:45:30 15° NNW 11:48:01 10° NNE visible
10 Nov - 15:07:19 10° NNE 15:07:44 10° NNE 15:08:09 10° NNE daylight
10 Nov - 16:44:09 10° NNW 16:48:12 34° NE 16:52:16 10° ESE daylight
10 Nov - 18:23:36 10° WNW 18:27:35 33° SW 18:31:32 10° SSE daylight
11 Nov - 08:13:03 10° SSE 08:14:30 12° SE 08:15:58 10° ESE night (unlit)
11 Nov - 09:49:31 10° WSW 09:53:21 65° NW 09:57:24 10° NE visible
11 Nov - 11:31:22 10° NW 11:33:25 13° NNW 11:35:30 10° N visible
11 Nov - 14:54:20 10° N 14:55:39 11° NNE 14:56:59 10° NE daylight
11 Nov - 16:31:49 10° NW 16:36:00 41° NE 16:40:13 10° ESE daylight
11 Nov - 18:11:33 10° WNW 18:15:16 26° SW 18:18:58 10° S daylight
